Tracking 19717 objects as of 25-Jun-2019
HD Live streaming from Space Station
objects crossing your sky now

FENGYUN 1C DEB

Track FENGYUN 1C DEB now!
10-day predictions


NORAD ID: 30442
Int'l Code: 1999-025AFD
Perigee: 812.2 km
Apogee: 914.7 km
Inclination: 99.0 °
Period: 102.1 minutes
Semi major axis: 7234 km
RCS: 0.0217 m2 (small)
Launch date: May 10, 1999
Source: People's Republic of China (PRC)
Launch site: Taiyaun Space Center, China (TSC)

Note: This is SATELLITE DEBRIS
aabbcc
Your satellite tracking list
Your tracking list is empty




NASA's NSSDC Master Catalog

Two Line Element Set (TLE):
1 30442U 99025AFD 19174.73160355 +.00000496 +00000-0 +29450-3 0  9992
2 30442 098.9705 236.0029 0070852 170.5622 310.5934 14.10904305637097
Source of the keplerian elements: AFSPC